STARLINK-3131, 49427

Orbit data source: Space-Track

STARLINK-3131, 49427 is a payload satellite owned by SpaceX/Seattle (US) in LEO that was launched on Sat, 13 Nov 2021 UTC via an FALCON 9 launch vehicle from the Air Force Eastern Test Range (AFETR). Payload-class satellites include a variety of spacecraft equipped with specific instruments for various scientific and technological missions. These include communications satellites like Starlink; space stations such as the ISS; scientific satellites like the Hubble; Earth observation satellites from companies like Planet Labs, Umbra, and HawkEye 360; GPS; miniature CubeSats for education and research; and military/defense satellites.

Loading next visibility...
Identifier
49427, 2021-104V
Orbit
LEO
Country
Flag of USUS
Related business
Manufacturer
SpaceX/Seattle
Mission
Operational Commercial Communications
Bus & Motor
STARLINK, Unknown motor
Mass
290 kg wet, ~270 kg dry
Launch date (UTC)
2021-11-13 (5 years ago)
Launch vehicle
FALCON 9
Launch site
Air Force Eastern Test Range (AFETR)
Object type
Payload
Rocket body
Debris
Shape & HBR
Box + 1 Pan, 10.1 m
Radar Cross Section
13.562 m², Large (>1 m²)

Expand to show TLE details & history
Last TLE update: 1 week ago

TLE from 1 week ago
0 STARLINK-3131
1 49427U 21104V   26154.45329473  .00003296  00000-0  22504-3 0  9995
2 49427  53.1822 204.0982 0002493 109.2166 250.9095 15.08845804251581
Epoch: 2026-06-03T10:52Z
TLE epoch observation values (Epoch: 2026-06-03T10:52:44.664Z)
Latitude
-0.00008°
Longitude
149.00035°
Altitude
541.184 km
Speed
7.593 km/s
True Right ascension
13h 36m 23s
True Declination
0° 00' 00"
Sunlit
Object was in full shadow at epoch
Visualization orbit readout
Latitude
Unknown
Longitude
Unknown
Altitude
Unknown
Speed
Unknown
Apparent Right ascension
Unknown
Apparent Declination
Unknown
Sunlit
N/A
Visualization observer readout
Local Sidereal Time
13:20:48
Azimuth
Unknown
Elevation
Unknown
Doppler factor
Unknown
Orbital elements
Apogee altitude
541.701 km
Perigee altitude
538.252 km
Semi-major axis
6,918.113 km
Eccentricity
0.00025
Inclination
53.1822°
RAAN
204.0982°
Arg. of periapsis
109.2166°
True anomaly
250.88251°
Mean anomaly
250.9095°
Eccentric anomaly
250.896°
Mean motion
3.77191 °/min
Orbital period
95.44 mins
BSTAR
0.00022504
Loading maneuver chart data...
Computing Atmospheric mass density...
Loading historical data...
Loading historical data...
Loading historical data...
Loading historical data...
Loading historical data...
Loading historical data...
Loading historical data...

Documentation

Showing up to 5 results
|